• In Deutschland
  • Länderverzeichnis
  • Für 7 Tage
  • Wassertemperatur
  • Satellitenkarten
  • Wetterkarte
  • Widgets
  • user-avatar
    Anmelden

    Stündliche Wetter Herborn

    Heute, 19 Juni, Dienstag

    Zeit Temperatur Niederschläge Wind Luftdruck Luftfeuchtigkeit
    00:00 +16°C° 0 mm 1 m/S 744 mmHg 94%
    01:00 +15°C° 0 mm 1 m/S 744 mmHg 95%
    02:00 +15°C° 0 mm 1 m/S 744 mmHg 96%
    03:00 +14°C° 0 mm 1 m/S 744 mmHg 96%
    04:00 +14°C° 0 mm 1 m/S 744 mmHg 96%
    05:00 +15°C° 0 mm 1 m/S 745 mmHg 94%
    06:00 +15°C° 0 mm 1 m/S 745 mmHg 92%
    07:00 +16°C° 0 mm 1 m/S 745 mmHg 90%
    08:00 +18°C° 0 mm 2 m/S 745 mmHg 85%
    09:00 +19°C° 0 mm 2 m/S 745 mmHg 80%
    10:00 +21°C° 0 mm 2 m/S 746 mmHg 74%
    11:00 +21°C° 0 mm 2 m/S 746 mmHg 74%
    12:00 +21°C° 0 mm 2 m/S 746 mmHg 73%
    13:00 +21°C° 0 mm 2 m/S 746 mmHg 73%
    14:00 +23°C° 0 mm 2 m/S 746 mmHg 71%
    15:00 +24°C° 0 mm 2 m/S 746 mmHg 69%
    16:00 +24°C° 0 mm 2 m/S 746 mmHg 67%
    17:00 +24°C° 0,1 mm 2 m/S 746 mmHg 71%
    18:00 +23°C° 0,1 mm 2 m/S 745 mmHg 76%
    19:00 +21°C° 0,1 mm 2 m/S 745 mmHg 80%
    20:00 +21°C° 0 mm 1 m/S 746 mmHg 84%
    21:00 +20°C° 0 mm 1 m/S 746 mmHg 88%
    22:00 +18°C° 0 mm 1 m/S 746 mmHg 93%
    23:00 +18°C° 0 mm 1 m/S 746 mmHg 93%

    Morgen, 20 Juni, Mittwoch

    Zeit Temperatur Niederschläge Wind Luftdruck Luftfeuchtigkeit
    00:00 +16°C° 0 mm 1 m/S 746 mmHg 94%
    01:00 +14°C° 0 mm 0 m/S 746 mmHg 95%
    02:00 +14°C° 0 mm 0 m/S 746 mmHg 95%
    03:00 +14°C° 0 mm 0 m/S 746 mmHg 95%
    04:00 +14°C° 0 mm 0 m/S 745 mmHg 96%
    05:00 +15°C° 0 mm 0 m/S 745 mmHg 93%
    06:00 +16°C° 0 mm 0 m/S 746 mmHg 90%
    07:00 +18°C° 0 mm 0 m/S 746 mmHg 87%
    08:00 +20°C° 0 mm 0 m/S 746 mmHg 79%
    09:00 +24°C° 0 mm 1 m/S 745 mmHg 71%
    10:00 +26°C° 0 mm 1 m/S 745 mmHg 63%
    11:00 +26°C° 0 mm 1 m/S 745 mmHg 61%
    12:00 +27°C° 0 mm 1 m/S 745 mmHg 58%
    13:00 +28°C° 0 mm 1 m/S 745 mmHg 55%
    14:00 +28°C° 0 mm 1 m/S 744 mmHg 53%
    15:00 +28°C° 0 mm 1 m/S 744 mmHg 52%
    16:00 +29°C° 0 mm 1 m/S 743 mmHg 50%
    17:00 +28°C° 0 mm 1 m/S 743 mmHg 56%
    18:00 +27°C° 0 mm 1 m/S 743 mmHg 62%
    19:00 +26°C° 0 mm 1 m/S 743 mmHg 69%
    20:00 +24°C° 0 mm 1 m/S 743 mmHg 74%
    21:00 +22°C° 0 mm 1 m/S 743 mmHg 79%
    22:00 +20°C° 0 mm 1 m/S 743 mmHg 85%
    23:00 +19°C° 0 mm 1 m/S 742 mmHg 86%

    übermorgen, 21 Juni, Donnerstag

    Zeit Temperatur Niederschläge Wind Luftdruck Luftfeuchtigkeit
    00:00 +19°C° 0 mm 1 m/S 742 mmHg 88%
    01:00 +18°C° 0 mm 1 m/S 742 mmHg 89%
    02:00 +18°C° 0 mm 1 m/S 741 mmHg 90%
    03:00 +18°C° 0 mm 1 m/S 741 mmHg 90%
    04:00 +18°C° 0 mm 1 m/S 741 mmHg 91%
    05:00 +19°C° 0 mm 1 m/S 740 mmHg 88%
    06:00 +19°C° 0 mm 2 m/S 740 mmHg 86%
    07:00 +20°C° 0 mm 2 m/S 740 mmHg 83%
    08:00 +20°C° 0,1 mm 3 m/S 740 mmHg 78%
    09:00 +21°C° 0,1 mm 4 m/S 740 mmHg 72%
    10:00 +22°C° 0,1 mm 5 m/S 740 mmHg 67%
    11:00 +20°C° 0,3 mm 5 m/S 740 mmHg 73%
    12:00 +17°C° 0,3 mm 5 m/S 740 mmHg 80%
    13:00 +15°C° 0,3 mm 5 m/S 740 mmHg 87%
    14:00 +15°C° 0,1 mm 6 m/S 740 mmHg 78%
    15:00 +15°C° 0,1 mm 6 m/S 741 mmHg 69%
    16:00 +16°C° 0,1 mm 7 m/S 741 mmHg 60%
    17:00 +15°C° 0 mm 6 m/S 742 mmHg 58%
    18:00 +15°C° 0 mm 5 m/S 742 mmHg 56%
    19:00 +14°C° 0 mm 5 m/S 742 mmHg 54%
    20:00 +12°C° 0 mm 4 m/S 743 mmHg 59%
    21:00 +11°C° 0 mm 3 m/S 744 mmHg 65%
    22:00 +9°C° 0 mm 3 m/S 744 mmHg 70%
    23:00 +9°C° 0 mm 3 m/S 744 mmHg 75%

    22 Juni, Freitag

    Zeit Temperatur Niederschläge Wind Luftdruck Luftfeuchtigkeit
    00:00 +8°C° 0 mm 2 m/S 745 mmHg 79%
    01:00 +7°C° 0 mm 2 m/S 745 mmHg 83%
    02:00 +7°C° 0 mm 2 m/S 745 mmHg 84%
    03:00 +7°C° 0 mm 2 m/S 745 mmHg 85%
    04:00 +7°C° 0 mm 3 m/S 745 mmHg 86%
    05:00 +8°C° 0 mm 3 m/S 745 mmHg 80%
    06:00 +8°C° 0 mm 4 m/S 745 mmHg 75%
    07:00 +10°C° 0 mm 4 m/S 745 mmHg 70%
    08:00 +10°C° 0 mm 4 m/S 745 mmHg 69%
    09:00 +11°C° 0 mm 4 m/S 745 mmHg 69%
    10:00 +11°C° 0 mm 4 m/S 745 mmHg 68%
    11:00 +12°C° 0 mm 5 m/S 745 mmHg 68%
    12:00 +12°C° 0 mm 5 m/S 745 mmHg 68%
    13:00 +12°C° 0 mm 5 m/S 745 mmHg 68%
    14:00 +13°C° 0 mm 5 m/S 745 mmHg 69%
    15:00 +13°C° 0 mm 5 m/S 745 mmHg 69%
    16:00 +13°C° 0 mm 5 m/S 745 mmHg 70%
    17:00 +12°C° 0 mm 4 m/S 745 mmHg 73%
    18:00 +12°C° 0 mm 4 m/S 745 mmHg 76%
    19:00 +12°C° 0 mm 4 m/S 745 mmHg 79%
    20:00 +11°C° 0,1 mm 3 m/S 746 mmHg 82%
    21:00 +10°C° 0,1 mm 3 m/S 746 mmHg 85%
    22:00 +10°C° 0,1 mm 3 m/S 746 mmHg 89%
    23:00 +9°C° 0 mm 3 m/S 746 mmHg 90%

    23 Juni, Samstag

    Zeit Temperatur Niederschläge Wind Luftdruck Luftfeuchtigkeit
    00:00 +8°C° 0 mm 2 m/S 746 mmHg 92%
    01:00 +8°C° 0 mm 2 m/S 746 mmHg 94%
    02:00 +7°C° 0 mm 2 m/S 746 mmHg 94%
    03:00 +7°C° 0 mm 2 m/S 746 mmHg 95%
    04:00 +6°C° 0 mm 2 m/S 746 mmHg 95%
    05:00 +8°C° 0 mm 2 m/S 746 mmHg 91%
    06:00 +9°C° 0 mm 3 m/S 746 mmHg 87%
    07:00 +10°C° 0 mm 3 m/S 747 mmHg 83%
    08:00 +11°C° 0 mm 3 m/S 747 mmHg 77%
    09:00 +12°C° 0 mm 3 m/S 747 mmHg 70%
    10:00 +12°C° 0 mm 3 m/S 747 mmHg 64%
    11:00 +13°C° 0 mm 3 m/S 747 mmHg 61%
    12:00 +14°C° 0 mm 3 m/S 747 mmHg 59%
    13:00 +14°C° 0 mm 3 m/S 746 mmHg 56%
    14:00 +16°C° 0 mm 3 m/S 746 mmHg 55%
    15:00 +16°C° 0 mm 3 m/S 746 mmHg 54%
    16:00 +17°C° 0 mm 3 m/S 746 mmHg 53%
    17:00 +16°C° 0 mm 3 m/S 746 mmHg 57%
    18:00 +14°C° 0 mm 3 m/S 745 mmHg 61%
    19:00 +14°C° 0 mm 3 m/S 745 mmHg 64%
    20:00 +13°C° 0 mm 2 m/S 746 mmHg 72%
    21:00 +10°C° 0 mm 2 m/S 746 mmHg 79%
    22:00 +10°C° 0 mm 1 m/S 746 mmHg 86%
    23:00 +9°C° 0 mm 1 m/S 746 mmHg 88%

    24 Juni, Sonntag

    Zeit Temperatur Niederschläge Wind Luftdruck Luftfeuchtigkeit
    00:00 +8°C° 0 mm 1 m/S 746 mmHg 91%
    01:00 +8°C° 0 mm 1 m/S 746 mmHg 93%
    02:00 +7°C° 0 mm 1 m/S 746 mmHg 93%
    03:00 +7°C° 0 mm 1 m/S 746 mmHg 94%
    04:00 +7°C° 0 mm 1 m/S 746 mmHg 94%
    05:00 +8°C° 0 mm 1 m/S 746 mmHg 90%
    06:00 +10°C° 0 mm 1 m/S 746 mmHg 86%
    07:00 +12°C° 0 mm 1 m/S 746 mmHg 82%
    08:00 +13°C° 0 mm 1 m/S 746 mmHg 76%
    09:00 +14°C° 0 mm 1 m/S 746 mmHg 71%
    10:00 +15°C° 0 mm 2 m/S 746 mmHg 65%
    11:00 +15°C° 0,1 mm 2 m/S 746 mmHg 65%
    12:00 +16°C° 0,1 mm 2 m/S 746 mmHg 65%
    13:00 +16°C° 0,1 mm 2 m/S 746 mmHg 65%
    14:00 +16°C° 0,1 mm 2 m/S 745 mmHg 65%
    15:00 +16°C° 0,1 mm 2 m/S 745 mmHg 66%
    16:00 +17°C° 0,1 mm 2 m/S 745 mmHg 67%
    17:00 +16°C° 0,1 mm 2 m/S 745 mmHg 71%
    18:00 +16°C° 0,1 mm 2 m/S 745 mmHg 75%
    19:00 +15°C° 0,1 mm 2 m/S 745 mmHg 80%
    20:00 +14°C° 0 mm 1 m/S 745 mmHg 83%
    21:00 +13°C° 0 mm 1 m/S 745 mmHg 87%
    22:00 +12°C° 0 mm 1 m/S 745 mmHg 90%
    23:00 +12°C° 0 mm 1 m/S 745 mmHg 92%
    Mehr zeigen